When you browse on this site, cookies collect data to enhance your experience and personalize the content and advertising you see.
Visit our Privacy Policy to learn more. By continuing to use the site, you agree to this use of cookies and data.
  • In Germany
  • List of Countries
  • For 7 days
  • Water Temperature
  • Weather Map
  • Weather Widgets
  • user-avatar
    Login

    Hourly Weather Mazari Sharif

    Today, 23 September, Monday

    Time Temperature Precipitation Wind Pressure Humidity
    00:00 +17°C° 0 mm 5 mps 658 mmHg 50%
    01:00 +17°C° 0 mm 4 mps 658 mmHg 60%
    02:00 +15°C° 0 mm 4 mps 658 mmHg 64%
    03:00 +14°C° 0 mm 4 mps 658 mmHg 68%
    04:00 +13°C° 0 mm 3 mps 658 mmHg 74%
    05:00 +14°C° 0 mm 3 mps 659 mmHg 68%
    06:00 +17°C° 0 mm 2 mps 659 mmHg 61%
    07:00 +18°C° 0 mm 2 mps 660 mmHg 55%
    08:00 +19°C° 0 mm 2 mps 660 mmHg 50%
    09:00 +21°C° 0 mm 3 mps 660 mmHg 45%
    10:00 +22°C° 0 mm 3 mps 660 mmHg 38%
    11:00 +24°C° 0 mm 3 mps 660 mmHg 36%
    12:00 +24°C° 0 mm 3 mps 659 mmHg 35%
    13:00 +25°C° 0 mm 4 mps 659 mmHg 33%
    14:00 +25°C° 0 mm 3 mps 658 mmHg 33%
    15:00 +25°C° 0 mm 2 mps 658 mmHg 33%
    16:00 +24°C° 0 mm 2 mps 657 mmHg 33%
    17:00 +22°C° 0 mm 1 mps 657 mmHg 41%
    18:00 +19°C° 0 mm 1 mps 656 mmHg 48%
    19:00 +16°C° 0 mm 1 mps 656 mmHg 56%
    20:00 +15°C° 0 mm 1 mps 656 mmHg 55%
    21:00 +15°C° 0 mm 1 mps 656 mmHg 55%
    22:00 +15°C° 0 mm 1 mps 655 mmHg 55%
    23:00 +15°C° 0 mm 1 mps 655 mmHg 55%

    Tomorrow, 24 September, Tuesday

    Time Temperature Precipitation Wind Pressure Humidity
    00:00 +14°C° 0 mm 1 mps 655 mmHg 56%
    01:00 +14°C° 0 mm 1 mps 655 mmHg 56%
    02:00 +14°C° 0 mm 1 mps 654 mmHg 57%
    03:00 +13°C° 0 mm 1 mps 654 mmHg 58%
    04:00 +13°C° 0 mm 1 mps 654 mmHg 58%
    05:00 +16°C° 0 mm 1 mps 655 mmHg 48%
    06:00 +19°C° 0 mm 1 mps 656 mmHg 37%
    07:00 +22°C° 0 mm 1 mps 657 mmHg 27%
    08:00 +24°C° 0 mm 1 mps 658 mmHg 24%
    09:00 +26°C° 0 mm 2 mps 658 mmHg 21%
    10:00 +29°C° 0 mm 2 mps 658 mmHg 18%
    11:00 +30°C° 0 mm 3 mps 658 mmHg 17%
    12:00 +31°C° 0 mm 3 mps 658 mmHg 16%
    13:00 +33°C° 0 mm 4 mps 657 mmHg 15%
    14:00 +32°C° 0 mm 4 mps 657 mmHg 16%
    15:00 +31°C° 0 mm 3 mps 657 mmHg 17%
    16:00 +30°C° 0 mm 3 mps 657 mmHg 18%
    17:00 +27°C° 0 mm 2 mps 656 mmHg 25%
    18:00 +23°C° 0 mm 1 mps 655 mmHg 31%
    19:00 +20°C° 0 mm 1 mps 655 mmHg 37%
    20:00 +19°C° 0 mm 1 mps 655 mmHg 40%
    21:00 +19°C° 0 mm 1 mps 655 mmHg 42%
    22:00 +19°C° 0 mm 1 mps 655 mmHg 44%
    23:00 +18°C° 0 mm 1 mps 654 mmHg 44%

    Day after tomorrow, 25 September, Wednesday

    Time Temperature Precipitation Wind Pressure Humidity
    00:00 +18°C° 0 mm 1 mps 654 mmHg 43%
    01:00 +18°C° 0 mm 1 mps 654 mmHg 42%
    02:00 +18°C° 0 mm 1 mps 654 mmHg 45%
    03:00 +16°C° 0 mm 1 mps 654 mmHg 48%
    04:00 +15°C° 0 mm 1 mps 654 mmHg 52%
    05:00 +19°C° 0 mm 1 mps 655 mmHg 42%
    06:00 +22°C° 0 mm 1 mps 656 mmHg 32%
    07:00 +25°C° 0 mm 1 mps 657 mmHg 23%
    08:00 +26°C° 0 mm 1 mps 657 mmHg 20%
    09:00 +28°C° 0 mm 2 mps 658 mmHg 18%
    10:00 +30°C° 0 mm 2 mps 658 mmHg 15%
    11:00 +31°C° 0 mm 3 mps 658 mmHg 15%
    12:00 +33°C° 0 mm 3 mps 657 mmHg 14%
    13:00 +34°C° 0 mm 4 mps 657 mmHg 14%
    14:00 +33°C° 0 mm 3 mps 657 mmHg 14%
    15:00 +31°C° 0 mm 3 mps 657 mmHg 15%
    16:00 +31°C° 0 mm 3 mps 656 mmHg 16%
    17:00 +27°C° 0 mm 2 mps 656 mmHg 21%
    18:00 +24°C° 0 mm 1 mps 655 mmHg 27%
    19:00 +20°C° 0 mm 1 mps 655 mmHg 32%
    20:00 +20°C° 0 mm 1 mps 655 mmHg 34%
    21:00 +20°C° 0 mm 1 mps 655 mmHg 37%
    22:00 +20°C° 0 mm 1 mps 655 mmHg 39%
    23:00 +19°C° 0 mm 1 mps 655 mmHg 43%

    26 September, Thursday

    Time Temperature Precipitation Wind Pressure Humidity
    00:00 +19°C° 0 mm 1 mps 655 mmHg 46%
    01:00 +18°C° 0 mm 1 mps 655 mmHg 50%
    02:00 +16°C° 0 mm 0 mps 655 mmHg 51%
    03:00 +15°C° 0 mm 0 mps 655 mmHg 52%
    04:00 +15°C° 0 mm 0 mps 655 mmHg 53%
    05:00 +18°C° 0 mm 0 mps 656 mmHg 42%
    06:00 +21°C° 0 mm 0 mps 657 mmHg 30%
    07:00 +24°C° 0 mm 0 mps 658 mmHg 19%
    08:00 +28°C° 0 mm 1 mps 659 mmHg 17%
    09:00 +30°C° 0 mm 1 mps 659 mmHg 15%
    10:00 +31°C° 0 mm 2 mps 660 mmHg 14%
    11:00 +33°C° 0 mm 3 mps 659 mmHg 13%
    12:00 +34°C° 0 mm 3 mps 659 mmHg 12%
    13:00 +35°C° 0 mm 4 mps 659 mmHg 12%
    14:00 +34°C° 0 mm 3 mps 658 mmHg 12%
    15:00 +33°C° 0 mm 3 mps 658 mmHg 13%
    16:00 +33°C° 0 mm 3 mps 658 mmHg 13%
    17:00 +28°C° 0 mm 2 mps 657 mmHg 18%
    18:00 +25°C° 0 mm 2 mps 656 mmHg 23%
    19:00 +21°C° 0 mm 1 mps 655 mmHg 27%
    20:00 +21°C° 0 mm 1 mps 655 mmHg 29%
    21:00 +21°C° 0 mm 1 mps 655 mmHg 30%
    22:00 +21°C° 0 mm 1 mps 655 mmHg 31%
    23:00 +20°C° 0 mm 1 mps 655 mmHg 33%

    27 September, Friday

    Time Temperature Precipitation Wind Pressure Humidity
    00:00 +20°C° 0 mm 1 mps 655 mmHg 35%
    01:00 +19°C° 0 mm 1 mps 654 mmHg 37%
    02:00 +19°C° 0 mm 1 mps 654 mmHg 39%
    03:00 +16°C° 0 mm 0 mps 654 mmHg 42%
    04:00 +16°C° 0 mm 0 mps 654 mmHg 44%
    05:00 +18°C° 0 mm 0 mps 655 mmHg 34%
    06:00 +23°C° 0 mm 1 mps 657 mmHg 25%
    07:00 +26°C° 0 mm 1 mps 658 mmHg 16%
    08:00 +28°C° 0 mm 1 mps 658 mmHg 14%
    09:00 +29°C° 0 mm 2 mps 658 mmHg 13%
    10:00 +31°C° 0 mm 2 mps 659 mmHg 12%
    11:00 +33°C° 0 mm 3 mps 659 mmHg 12%
    12:00 +33°C° 0 mm 4 mps 658 mmHg 12%
    13:00 +34°C° 0 mm 4 mps 658 mmHg 11%
    14:00 +33°C° 0 mm 4 mps 658 mmHg 12%
    15:00 +33°C° 0 mm 4 mps 658 mmHg 12%
    16:00 +32°C° 0 mm 4 mps 657 mmHg 12%
    17:00 +28°C° 0 mm 3 mps 657 mmHg 16%
    18:00 +25°C° 0 mm 2 mps 656 mmHg 19%
    19:00 +21°C° 0 mm 1 mps 656 mmHg 23%
    20:00 +20°C° 0 mm 2 mps 656 mmHg 23%
    21:00 +20°C° 0 mm 2 mps 656 mmHg 23%
    22:00 +20°C° 0 mm 2 mps 656 mmHg 23%
    23:00 +20°C° 0 mm 2 mps 656 mmHg 24%

    28 September, Saturday

    Time Temperature Precipitation Wind Pressure Humidity
    00:00 +20°C° 0 mm 2 mps 655 mmHg 24%
    01:00 +20°C° 0 mm 2 mps 655 mmHg 25%
    02:00 +19°C° 0 mm 2 mps 655 mmHg 27%
    03:00 +18°C° 0 mm 2 mps 654 mmHg 30%
    04:00 +18°C° 0 mm 2 mps 654 mmHg 32%
    05:00 +20°C° 0 mm 2 mps 655 mmHg 27%
    06:00 +23°C° 0 mm 1 mps 656 mmHg 21%
    07:00 +26°C° 0 mm 1 mps 656 mmHg 16%
    08:00 +28°C° 0 mm 1 mps 657 mmHg 14%
    09:00 +30°C° 0 mm 2 mps 657 mmHg 12%
    10:00 +32°C° 0 mm 2 mps 657 mmHg 10%
    11:00 +34°C° 0 mm 3 mps 657 mmHg 9%
    12:00 +34°C° 0 mm 3 mps 656 mmHg 9%
    13:00 +35°C° 0 mm 4 mps 656 mmHg 8%
    14:00 +35°C° 0 mm 4 mps 656 mmHg 9%
    15:00 +34°C° 0 mm 4 mps 655 mmHg 9%
    16:00 +34°C° 0 mm 3 mps 655 mmHg 9%
    17:00 +29°C° 0 mm 3 mps 654 mmHg 13%
    18:00 +26°C° 0 mm 2 mps 654 mmHg 16%
    19:00 +22°C° 0 mm 1 mps 653 mmHg 19%
    20:00 +22°C° 0 mm 1 mps 653 mmHg 19%
    21:00 +21°C° 0 mm 2 mps 653 mmHg 20%
    22:00 +21°C° 0 mm 2 mps 653 mmHg 20%
    23:00 +21°C° 0 mm 2 mps 653 mmHg 20%
    Show more